Location: Newark
(35.8833°N, 14.5000°E)
Time: 02:40:28
(UTC+00:00)

Altair - Pass Details

Date: 28 November 2019
Orbit: 1502 x 1682 km, 47.2° (Epoch: 14 December)

Event Time Altitude Azimuth Distance (km) Brightness Sun altitude
Rises 02:20:23 0° 284° (WNW) 4,652 - -42.1°
Reaches altitude 10° 02:23:43 10° 292° (WNW) 3,659 - -41.4°
Maximum altitude 02:32:14 41° 0° (N) 2,068 - -39.7°
Exits shadow 02:33:06 40° 13° (NNE) 2,091 8.1 -39.5°
Drops below altitude 10° 02:40:48 10° 68° (ENE) 3,676 10.1 -38.0°
Sets 02:44:09 0° 76° (ENE) 4,674 10.9 -37.3°
